Fort Knox, KY

5:55 AM EST on January 19, 2017 (GMT -0500)
Godman Army Air Field

Weather History for KFTK - January, 2013

Change the Weather History Date:

Saturday, January 12, 2013

  Actual Average Record
Temperature  
Mean Temperature 60 °F -  
Max Temperature 66 °F 39 °F 68 °F (2005)
Min Temperature 55 °F 23 °F 0 °F (1997)
Degree Days  
Heating Degree Days 4    
Growing Degree Days 10 (Base 50)    
Moisture  
Dew Point 61 °F    
Average Humidity 94    
Maximum Humidity 100    
Minimum Humidity 82    
Precipitation  
Precipitation 0.00 in - - ()
Sea Level Pressure  
Sea Level Pressure 29.94 in    
Wind  
Wind Speed 9 mph (South)    
Max Wind Speed 17 mph    
Max Gust Speed 24 mph    
Visibility 9 miles    
Events Rain    
Averages and records for this station are not official NWS values.
T = Trace of Precipitation, MM = Missing Value Source: NWS Daily Summary

Daily Weather History Graph

Daily Weather History Graph

Search for Another Location

Airport or City:

Trip Planner

Search our weather history database for the weather conditions in past years. The results will help you decide how hot, cold, wet, or windy it might be!

Date:

Astronomy

Jan. 12, 2013 Rise Set
Actual Time 7:59 AM EST 5:45 PM EST
Civil Twilight 7:30 AM EST 6:14 PM EST
Nautical Twilight 6:57 AM EST 6:47 PM EST
Astronomical Twilight 6:26 AM EST 7:18 PM EST
Moon 8:19 AM EST (1/12) 7:11 PM EST (1/12)
Length of Visible Light 10h 44m
Length of Day
9h 46m
New Moon, 1% of the Moon is Illuminated
Jan 12
New Moon
Jan 18
First Quarter
Jan 26
Full
Feb 3
Last Quarter
Feb 10
New

Hourly Weather History & Observations

Time (EST) Temp. Dew Point Humidity Pressure Visibility Wind Dir Wind Speed Gust Speed Precip Events Conditions
12:55 AM 55.2 °F 53.2 °F 93% 29.96 in 10.0 mi South 6.9 mph - N/A   Partly Cloudy
1:55 AM 58.8 °F 57.0 °F 94% 29.96 in 10.0 mi South 12.7 mph - N/A   Partly Cloudy
2:55 AM 59.7 °F 57.6 °F 93% 29.96 in 10.0 mi SSW 11.5 mph - N/A   Clear
3:55 AM 60.1 °F 58.5 °F 94% 29.96 in 10.0 mi SSW 13.8 mph - N/A   Scattered Clouds
4:55 AM 60.1 °F 58.8 °F 96% 29.96 in 10.0 mi SSW 10.4 mph - N/A   Scattered Clouds
5:55 AM 59.4 °F 58.5 °F 97% 29.96 in 10.0 mi SSW 6.9 mph - N/A   Scattered Clouds
6:55 AM 60.3 °F 59.5 °F 97% 29.98 in 10.0 mi SSW 6.9 mph - N/A   Mostly Cloudy
7:10 AM 60.8 °F 59.0 °F 94% 29.99 in 10.0 mi SSW 4.6 mph - N/A   Mostly Cloudy
7:14 AM 60.8 °F 59.0 °F 94% 29.99 in 10.0 mi SSW 5.8 mph - N/A   Overcast
7:15 AM 60.8 °F 59.0 °F 94% 29.99 in 10.0 mi SSW 5.8 mph - N/A   Overcast
7:16 AM 60.8 °F 59.0 °F 94% 29.99 in 10.0 mi South 5.8 mph - N/A   Overcast
7:21 AM 60.8 °F 59.0 °F 94% 29.99 in 10.0 mi SSW 5.8 mph - N/A   Overcast
7:22 AM 60.8 °F 59.0 °F 94% 29.99 in 10.0 mi SSW 6.9 mph - N/A   Overcast
7:55 AM 60.3 °F 59.5 °F 97% 30.00 in 10.0 mi South 4.6 mph - N/A   Overcast
8:55 AM 61.3 °F 60.8 °F 98% 30.01 in 10.0 mi South 5.8 mph - 0.00 in   Overcast
9:01 AM 60.8 °F 60.8 °F 100% 30.01 in 10.0 mi SSW 4.6 mph - N/A   Mostly Cloudy
9:49 AM 62.6 °F 60.8 °F 94% 30.01 in 10.0 mi South 4.6 mph - N/A   Overcast
9:55 AM 62.4 °F 61.9 °F 98% 30.02 in 10.0 mi South 5.8 mph - N/A   Mostly Cloudy
10:55 AM 63.5 °F 62.8 °F 97% 30.02 in 10.0 mi South 5.8 mph - N/A   Overcast
11:47 AM 66.2 °F 62.6 °F 88% 29.99 in 10.0 mi South 3.5 mph - N/A   Overcast
11:55 AM 65.7 °F 63.1 °F 92% 29.99 in 10.0 mi SSE 5.8 mph - N/A   Overcast
12:06 PM 66.2 °F 62.6 °F 88% 29.98 in 10.0 mi SSE 6.9 mph - N/A   Overcast
12:28 PM 66.2 °F 62.6 °F 88% 29.97 in 10.0 mi South 9.2 mph - N/A   Overcast
12:55 PM 65.8 °F 63.5 °F 92% 29.97 in 10.0 mi South 5.8 mph - N/A   Overcast
1:55 PM 65.8 °F 63.5 °F 92% 29.96 in 10.0 mi SSE 4.6 mph - N/A   Overcast
2:29 PM 66.2 °F 64.4 °F 94% 29.94 in 5.0 mi SSE 9.2 mph - N/A Rain Light Rain
2:55 PM 64.9 °F 63.7 °F 96% 29.93 in 10.0 mi ESE 6.9 mph - 0.00 in   Light Drizzle
3:27 PM 64.4 °F 64.4 °F 100% 29.90 in 5.0 mi ESE 6.9 mph - N/A   Overcast
3:55 PM 64.9 °F 64.4 °F 98% 29.90 in 5.0 mi ESE 6.9 mph - 0.00 in   Overcast
4:24 PM 64.4 °F 64.4 °F 100% 29.90 in 6.0 mi SSE 9.2 mph - N/A   Overcast
4:55 PM 65.1 °F 63.9 °F 96% 29.91 in 7.0 mi SSE 12.7 mph 18.4 mph N/A   Overcast
5:13 PM 64.4 °F 62.6 °F 94% 29.89 in 10.0 mi SSE 12.7 mph - N/A   Overcast
5:55 PM 64.2 °F 62.4 °F 94% 29.88 in 10.0 mi SSE 11.5 mph - 0.00 in   Overcast
6:55 PM 64.2 °F 62.4 °F 94% 29.86 in 10.0 mi SSE 13.8 mph - N/A   Overcast
7:36 PM 64.4 °F 62.6 °F 94% 29.85 in 10.0 mi SSE 17.3 mph 24.2 mph N/A   Overcast
7:55 PM 64.6 °F 62.2 °F 92% 29.86 in 10.0 mi South 17.3 mph 23.0 mph N/A   Overcast
8:55 PM 65.1 °F 62.1 °F 90% 29.85 in 10.0 mi South 17.3 mph 23.0 mph N/A   Overcast
9:55 PM 65.3 °F 61.7 °F 88% 29.83 in 10.0 mi South 13.8 mph 23.0 mph N/A   Mostly Cloudy
10:55 PM 65.8 °F 61.3 °F 85% 29.80 in 10.0 mi SSE 11.5 mph - N/A   Overcast
11:55 PM 66.2 °F 60.6 °F 82% 29.79 in 10.0 mi SSE 15.0 mph 20.7 mph N/A   Overcast